Track STARLINK-2491 now! 10-day predictions STARLINK-2491 is classified as:
1 48148U 21027BJ 22187.41440709 .00003969 00000-0 28525-3 0 9998 2 48148 53.0546 77.3248 0001566 74.2005 285.9156 15.06392630 70094